EN

Hourly Weather Yasenytsya-Zamkova

Today, 24 November, Tuesday

Time Temperature Precipitation Wind Pressure Humidity
00:00 -1°C° 0 mm 2 mps 721 mmHg 92%
01:00 -1°C° 0 mm 2 mps 721 mmHg 93%
02:00 +1°C° 0 mm 2 mps 722 mmHg 95%
03:00 -1°C° 0 mm 2 mps 722 mmHg 95%
04:00 -1°C° 0 mm 2 mps 721 mmHg 95%
05:00 -1°C° 0 mm 2 mps 721 mmHg 95%
06:00 -1°C° 0 mm 2 mps 722 mmHg 94%
07:00 -1°C° 0 mm 2 mps 722 mmHg 93%
08:00 +1°C° 0 mm 1 mps 722 mmHg 92%
09:00 +1°C° 0 mm 2 mps 722 mmHg 87%
10:00 +2°C° 0 mm 2 mps 723 mmHg 81%
11:00 +3°C° 0 mm 2 mps 723 mmHg 76%
12:00 +4°C° 0 mm 2 mps 723 mmHg 74%
13:00 +4°C° 0 mm 2 mps 722 mmHg 72%
14:00 +4°C° 0 mm 2 mps 722 mmHg 70%
15:00 +3°C° 0 mm 2 mps 722 mmHg 76%
16:00 +2°C° 0 mm 2 mps 722 mmHg 82%
17:00 +1°C° 0 mm 1 mps 721 mmHg 88%
18:00 -1°C° 0 mm 2 mps 721 mmHg 88%
19:00 -1°C° 0 mm 2 mps 721 mmHg 89%
20:00 -2°C° 0 mm 2 mps 721 mmHg 90%
21:00 -2°C° 0 mm 2 mps 721 mmHg 89%
22:00 -2°C° 0 mm 2 mps 721 mmHg 89%
23:00 -2°C° 0 mm 2 mps 721 mmHg 88%

Tomorrow, 25 November, Wednesday

Time Temperature Precipitation Wind Pressure Humidity
00:00 -2°C° 0 mm 2 mps 721 mmHg 88%
01:00 -2°C° 0 mm 2 mps 721 mmHg 89%
02:00 -2°C° 0 mm 2 mps 721 mmHg 89%
03:00 -2°C° 0 mm 2 mps 720 mmHg 89%
04:00 -2°C° 0 mm 2 mps 720 mmHg 89%
05:00 -2°C° 0 mm 2 mps 720 mmHg 90%
06:00 -2°C° 0 mm 2 mps 720 mmHg 90%
07:00 -2°C° 0 mm 2 mps 720 mmHg 89%
08:00 -2°C° 0 mm 2 mps 720 mmHg 89%
09:00 -1°C° 0 mm 2 mps 720 mmHg 82%
10:00 +2°C° 0 mm 2 mps 720 mmHg 74%
11:00 +3°C° 0 mm 2 mps 720 mmHg 66%
12:00 +4°C° 0 mm 2 mps 720 mmHg 63%
13:00 +4°C° 0 mm 2 mps 720 mmHg 61%
14:00 +5°C° 0 mm 2 mps 720 mmHg 58%
15:00 +3°C° 0 mm 2 mps 719 mmHg 65%
16:00 +2°C° 0 mm 2 mps 719 mmHg 72%
17:00 -1°C° 0 mm 2 mps 719 mmHg 79%
18:00 -1°C° 0 mm 2 mps 719 mmHg 79%
19:00 -2°C° 0 mm 2 mps 719 mmHg 79%
20:00 -2°C° 0 mm 2 mps 719 mmHg 79%
21:00 -2°C° 0 mm 2 mps 719 mmHg 79%
22:00 -2°C° 0 mm 2 mps 719 mmHg 78%
23:00 -2°C° 0 mm 2 mps 719 mmHg 78%

Day after tomorrow, 26 November, Thursday

Time Temperature Precipitation Wind Pressure Humidity
00:00 -2°C° 0 mm 2 mps 718 mmHg 79%
01:00 -2°C° 0 mm 2 mps 718 mmHg 79%
02:00 -2°C° 0 mm 2 mps 718 mmHg 80%
03:00 -2°C° 0 mm 2 mps 718 mmHg 79%
04:00 -2°C° 0 mm 2 mps 718 mmHg 79%
05:00 -2°C° 0 mm 2 mps 718 mmHg 79%
06:00 -2°C° 0 mm 2 mps 718 mmHg 79%
07:00 -2°C° 0 mm 2 mps 718 mmHg 78%
08:00 -2°C° 0 mm 2 mps 718 mmHg 77%
09:00 +1°C° 0 mm 2 mps 718 mmHg 70%
10:00 +2°C° 0 mm 2 mps 718 mmHg 62%
11:00 +4°C° 0 mm 2 mps 718 mmHg 55%
12:00 +5°C° 0 mm 2 mps 718 mmHg 54%
13:00 +5°C° 0 mm 2 mps 718 mmHg 53%
14:00 +6°C° 0 mm 2 mps 718 mmHg 52%
15:00 +4°C° 0 mm 2 mps 717 mmHg 58%
16:00 +2°C° 0 mm 2 mps 717 mmHg 65%
17:00 +1°C° 0 mm 2 mps 716 mmHg 72%
18:00 -1°C° 0 mm 2 mps 716 mmHg 72%
19:00 -1°C° 0 mm 2 mps 716 mmHg 73%
20:00 -2°C° 0 mm 2 mps 716 mmHg 73%
21:00 -2°C° 0 mm 2 mps 716 mmHg 73%
22:00 -2°C° 0 mm 2 mps 716 mmHg 72%
23:00 -2°C° 0 mm 2 mps 716 mmHg 71%

27 November, Friday

Time Temperature Precipitation Wind Pressure Humidity
00:00 -2°C° 0 mm 2 mps 716 mmHg 71%
01:00 -2°C° 0 mm 2 mps 716 mmHg 70%
02:00 -2°C° 0 mm 2 mps 716 mmHg 70%
03:00 -2°C° 0 mm 2 mps 716 mmHg 69%
04:00 0°C° 0 mm 1 mps 716 mmHg 69%
05:00 0°C° 0 mm 1 mps 715 mmHg 68%
06:00 0°C° 0 mm 1 mps 715 mmHg 68%
07:00 0°C° 0 mm 1 mps 715 mmHg 68%
08:00 0°C° 0 mm 1 mps 715 mmHg 67%
09:00 +2°C° 0 mm 1 mps 716 mmHg 63%
10:00 +3°C° 0 mm 1 mps 716 mmHg 58%
11:00 +5°C° 0 mm 1 mps 716 mmHg 53%
12:00 +5°C° 0 mm 1 mps 716 mmHg 55%
13:00 +5°C° 0 mm 1 mps 716 mmHg 57%
14:00 +6°C° 0 mm 1 mps 716 mmHg 58%
15:00 +4°C° 0 mm 1 mps 716 mmHg 63%
16:00 +3°C° 0 mm 1 mps 715 mmHg 69%
17:00 +2°C° 0 mm 1 mps 715 mmHg 74%
18:00 +2°C° 0 mm 1 mps 716 mmHg 75%
19:00 +1°C° 0 mm 1 mps 716 mmHg 75%
20:00 +1°C° 0 mm 1 mps 716 mmHg 76%
21:00 +1°C° 0 mm 1 mps 716 mmHg 76%
22:00 +1°C° 0 mm 1 mps 716 mmHg 76%
23:00 +1°C° 0 mm 1 mps 716 mmHg 76%

28 November, Saturday

Time Temperature Precipitation Wind Pressure Humidity
00:00 +1°C° 0 mm 1 mps 716 mmHg 76%
01:00 0°C° 0 mm 0 mps 716 mmHg 76%
02:00 0°C° 0 mm 0 mps 716 mmHg 77%
03:00 -1°C° 0 mm 0 mps 716 mmHg 78%
04:00 -1°C° 0 mm 0 mps 716 mmHg 79%
05:00 -1°C° 0 mm 0 mps 716 mmHg 80%
06:00 -1°C° 0 mm 0 mps 717 mmHg 80%
07:00 0°C° 0 mm 0 mps 717 mmHg 80%
08:00 0°C° 0 mm 0 mps 717 mmHg 80%
09:00 0°C° 0.1 mm 0 mps 717 mmHg 81%
10:00 +1°C° 0.1 mm 0 mps 717 mmHg 82%
11:00 +2°C° 0.1 mm 1 mps 717 mmHg 82%
12:00 +2°C° 0.1 mm 1 mps 717 mmHg 86%
13:00 +2°C° 0.1 mm 1 mps 717 mmHg 90%
14:00 +2°C° 0.1 mm 1 mps 717 mmHg 95%
15:00 +2°C° 0.1 mm 1 mps 717 mmHg 96%
16:00 +2°C° 0.1 mm 1 mps 717 mmHg 97%
17:00 +2°C° 0.1 mm 1 mps 717 mmHg 98%
18:00 +1°C° 0.1 mm 1 mps 717 mmHg 97%
19:00 +1°C° 0.1 mm 1 mps 717 mmHg 97%
20:00 +1°C° 0.1 mm 1 mps 718 mmHg 96%
21:00 +1°C° 0.1 mm 1 mps 718 mmHg 96%
22:00 0°C° 0.1 mm 1 mps 718 mmHg 95%
23:00 0°C° 0.1 mm 1 mps 718 mmHg 94%

29 November, Sunday

Time Temperature Precipitation Wind Pressure Humidity
00:00 0°C° 0.1 mm 1 mps 718 mmHg 94%
01:00 -3°C° 0.1 mm 2 mps 718 mmHg 94%
02:00 -3°C° 0.1 mm 2 mps 718 mmHg 94%
03:00 -3°C° 0 mm 2 mps 718 mmHg 93%
04:00 -3°C° 0 mm 2 mps 717 mmHg 92%
05:00 -4°C° 0 mm 2 mps 717 mmHg 90%
06:00 -4°C° 0 mm 2 mps 717 mmHg 90%
07:00 -4°C° 0 mm 2 mps 717 mmHg 89%
08:00 -4°C° 0 mm 2 mps 717 mmHg 88%
09:00 -4°C° 0 mm 2 mps 717 mmHg 85%
10:00 -5°C° 0 mm 3 mps 717 mmHg 82%
11:00 -4°C° 0 mm 3 mps 717 mmHg 80%
12:00 -4°C° 0 mm 3 mps 717 mmHg 78%
13:00 -4°C° 0 mm 3 mps 717 mmHg 77%
14:00 -4°C° 0 mm 3 mps 716 mmHg 75%
15:00 -4°C° 0 mm 3 mps 716 mmHg 79%
16:00 -4°C° 0 mm 2 mps 716 mmHg 82%
17:00 -4°C° 0 mm 2 mps 716 mmHg 85%
18:00 -4°C° 0 mm 2 mps 716 mmHg 84%
19:00 -4°C° 0 mm 2 mps 716 mmHg 83%
20:00 -4°C° 0 mm 2 mps 716 mmHg 82%
21:00 -5°C° 0 mm 2 mps 716 mmHg 82%
22:00 -5°C° 0 mm 2 mps 716 mmHg 82%
23:00 -5°C° 0 mm 2 mps 716 mmHg 82%
Show more

We Need Your Consent

Meteoprog and our Service Providers may store and access personal data such as cookies, device identifiers or other similar technologies on your device and process such data to personalise content and ads, as well as provide social media features and to analyse the traffic.

  • Store and/or access information on your device

    Cookies, device identifiers or other information can be stored or accessed on your device for the purposes indicated above.

  • Personalised ads and content, ad and content measurement, audience insights, and products development

    Ads and content can be personalised based on a profile. More data can be added to better personalise ads and content. Ad and content performance can be measured. Insights about the audience who saw the ads and content can be derived. Such data can be used to develop or improve user’s experience, systems and software.

By clicking ‘I Agree’ you will allow the use of indicated cookies, device identifiers, web beacons or other similar technologies. Your settings can be changed in the browser on your device.

For certain purposes, legitimate interests may be relied on, rather than consent. You can read more about this in our Privacy and Cookie Policy.